Weather History for Marathon, FL

Change the Weather History Date:

Wednesday, February 27, 2013

  Actual Average Record
Temperature  
Mean Temperature 79 °F 72 °F  
Max Temperature 83 °F 78 °F 86 °F (1997)
Min Temperature 74 °F 67 °F 57 °F (2002)
Degree Days  
Heating Degree Days 0 1  
Month to date heating degree days 7 23  
Since 1 July heating degree days 13 82  
Cooling Degree Days 14 8  
Month to date cooling degree days 262 193  
Year to date cooling degree days 590 374  
Growing Degree Days 28 (Base 50)    
Moisture  
Dew Point 69 °F    
Average Humidity 75    
Maximum Humidity 85    
Minimum Humidity 65    
Precipitation  
Precipitation T in 0.07 in 0.05 in (2008)
Month to date precipitation 1.81 2.14  
Year to date precipitation 2.35 3.75  
Snow  
Snow 0.00 in - - ()
Month to date snowfall 0.0  
Since 1 July snowfall 0.0  
Snow Depth 0.00 in    
Sea Level Pressure  
Sea Level Pressure 29.93 in    
Wind  
Wind Speed 5 mph (NW)    
Max Wind Speed 13 mph    
Max Gust Speed 17 mph    
Visibility 10 miles    
Events Rain    
T = Trace of Precipitation, MM = Missing Value Source: NWS Daily Summary

Daily Weather History Graph

Daily Weather History Graph

Search for Another Location

Airport:

Trip Planner

Search our weather history database for the weather conditions in past years. The results will help you decide how hot, cold, wet, or windy it might be!

Date:

Astronomy

Feb. 27, 2013 Rise Set
Actual Time 6:48 AM EST 6:25 PM EST
Civil Twilight 6:25 AM EST 6:48 PM EST
Nautical Twilight 5:58 AM EST 7:15 PM EST
Astronomical Twilight 5:32 AM EST 7:41 PM EST
Moon 8:24 PM EST (2/27) 7:40 AM EST (2/27)
Length of Visible Light 12h 23m
Length of Day
11h 37m
Waning Gibbous, 96% of the Moon is Illuminated
Feb 27
Waning Gibbous
Mar 4
Last Quarter
Mar 11
New
Mar 19
First Quarter
Mar 27
Full

Hourly Weather History & Observations

Time (EST) Temp. Heat Index Dew Point Humidity Pressure Visibility Wind Dir Wind Speed Gust Speed Precip Events Conditions
12:53 AM 79.0 °F - 72.0 °F 79% 29.91 in 10.0 mi SSW 5.8 mph - N/A   Mostly Cloudy
1:53 AM 79.0 °F - 72.0 °F 79% 29.91 in 10.0 mi SW 8.1 mph - N/A   Overcast
2:53 AM 78.1 °F - 73.0 °F 84% 29.89 in 9.0 mi SSW 8.1 mph - N/A   Overcast
3:53 AM 78.1 °F - 72.0 °F 81% 29.88 in 9.0 mi SSW 8.1 mph - N/A   Overcast
4:53 AM 75.9 °F - 70.0 °F 82% 29.89 in 10.0 mi West 8.1 mph - N/A   Overcast
5:00 AM 75.2 °F - 69.8 °F 83% 29.89 in 10.0 mi West 9.2 mph - N/A   Overcast
5:53 AM 75.9 °F - 69.1 °F 79% 29.91 in 10.0 mi West 6.9 mph - N/A   Overcast
6:53 AM 77.0 °F - 69.1 °F 76% 29.93 in 10.0 mi West 4.6 mph - N/A   Overcast
7:29 AM 75.2 °F - 69.8 °F 83% 29.94 in 10.0 mi NNW 6.9 mph - N/A   Overcast
7:37 AM 75.2 °F - 69.8 °F 83% 29.94 in 10.0 mi NNW 5.8 mph - N/A   Overcast
7:48 AM 75.2 °F - 68.0 °F 78% 29.95 in 9.0 mi Variable 4.6 mph - N/A   Overcast
7:53 AM 75.0 °F - 68.0 °F 79% 29.95 in 9.0 mi NNW 6.9 mph - N/A   Overcast
8:29 AM 75.2 °F - 68.0 °F 78% 29.96 in 9.0 mi North 3.5 mph - N/A   Overcast
8:53 AM 77.0 °F - 68.0 °F 74% 29.96 in 9.0 mi NNW 5.8 mph - N/A   Mostly Cloudy
9:53 AM 77.0 °F - 66.9 °F 71% 29.97 in 10.0 mi NE 4.6 mph - N/A   Overcast
10:53 AM 80.1 °F 82.7 °F 68.0 °F 67% 29.97 in 10.0 mi Calm Calm - N/A   Partly Cloudy
11:53 AM 82.9 °F 87.0 °F 70.0 °F 65% 29.97 in 10.0 mi Calm Calm - N/A   Scattered Clouds
12:13 PM 82.4 °F 86.3 °F 69.8 °F 66% 29.96 in 10.0 mi Calm Calm - N/A   Mostly Cloudy
12:51 PM 82.4 °F 87.2 °F 71.6 °F 70% 29.94 in 10.0 mi Variable 3.5 mph - 0.00 in Rain Light Rain
12:53 PM 82.0 °F 85.9 °F 70.0 °F 67% 29.94 in 10.0 mi SSE 3.5 mph - 0.00 in   Mostly Cloudy
1:53 PM 81.0 °F 84.4 °F 70.0 °F 69% 29.93 in 10.0 mi Variable 4.6 mph - N/A   Overcast
2:53 PM 81.0 °F 84.4 °F 70.0 °F 69% 29.92 in 10.0 mi North 8.1 mph - N/A   Mostly Cloudy
3:00 PM 80.6 °F 83.9 °F 69.8 °F 70% 29.91 in 10.0 mi North 6.9 mph - N/A   Scattered Clouds
3:53 PM 78.1 °F - 69.1 °F 74% 29.90 in 10.0 mi North 6.9 mph - N/A   Clear
4:53 PM 78.1 °F - 69.1 °F 74% 29.91 in 10.0 mi North 5.8 mph - N/A   Clear
5:53 PM 77.0 °F - 69.1 °F 76% 29.91 in 9.0 mi North 5.8 mph - N/A   Scattered Clouds
6:53 PM 75.9 °F - 69.1 °F 79% 29.94 in 10.0 mi Variable 5.8 mph - N/A   Clear
7:53 PM 75.0 °F - 68.0 °F 79% 29.96 in 10.0 mi NNW 10.4 mph 17.3 mph N/A   Mostly Cloudy
8:53 PM 73.9 °F - 66.9 °F 79% 29.97 in 10.0 mi North 8.1 mph - N/A   Overcast
9:53 PM 73.9 °F - 66.9 °F 79% 29.98 in 10.0 mi Calm Calm - N/A   Overcast
10:53 PM 73.9 °F - 66.9 °F 79% 29.96 in 10.0 mi Calm Calm - N/A   Overcast
11:53 PM 73.9 °F - 68.0 °F 82% 29.96 in 10.0 mi WNW 4.6 mph - 0.00 in   Mostly Cloudy